Location: ???????
(55.4231°N, 38.5570°E)
Time: 13:55:07
(UTC+00:00)

Cosmos 2360 Rocket - Pass Details

Date: 05 August 2024
Orbit: 834 x 843 km, 71.0° (Epoch: 19 September)

Event Time Altitude Azimuth Distance (km) Brightness Sun altitude
Exits shadow 00:46:34 - 235° (SW) 2,630 4.1 -6.9°
Reaches altitude 10° 00:47:01 10° 236° (SW) 2,463 4.0 -6.8°
Maximum altitude 00:52:32 53° 313° (NW) 1,036 2.7 -6.2°
Drops below altitude 10° 00:58:05 10° 30° (NNE) 2,472 6.1 -5.7°
Sets 01:00:37 0° 35° (NE) 3,408 7.3 -5.4°
